Home > Time Zones > World Clock > Weather > Italy > Parma > Past weeks

Flag for Italy Weather past 2 weeks in Parma, Italy

Now
72 °F

Partly sunny.


Feels Like: 76 °F
Forecast: 64 / 87 °F
Wind: 7 mph from East

Location: Parma

Current Time: Aug 1, 2015 at 10:47:31 AM

Latest Report: Aug 1, 2015 at 9:50 AM


Visibility: N/A

Pressure: 29.98 "Hg

Humidity: 61%

Dew point: 57 °F

Location of ParmaLocation

Historic Weather in Parma — Graph

°F

Parma temperature yesterday

Maximum temperature yesterday: 81 °F (at 3:50 PM)
Minimum temperature yesterday: 68 °F (at 7:00 AM)
Average temperature yesterday: 75 °F

Past Weeks' High & Low Weather Summary

 TemperatureHumidityPressure
High99 °F (Jul 19, 4:50 PM)88% (Jul 28, 7:00 AM)30.07 "Hg (Jul 28, 7:00 AM)
Low66 °F (Aug 1, 7:00 AM)24% (Jul 28, 6:50 PM)29.62 "Hg (Jul 27, 3:50 PM)
Average85 °F51%29.84 "Hg
* Reported Jul 17 8:50 AM — Aug 1 8:50 AM, Parma, Weather by CustomWeather, © 2015

Note: Actual official high and low records may vary slightly from our data, if they occured in-between our weather recording intervals... More about our weather records

Advertising

Parma weather history for previous 24 hours

 ConditionsComfort  
Time TempWeatherWind HumidityBarometerVisibility
8:50 AM
Sat, Aug 1
68 °FPartly sunny.9 mph64%29.95 "HgN/A
7:50 AM68 °FPartly sunny.5 mph69%29.98 "HgN/A
7:00 AM66 °FPassing clouds.6 mph73%29.95 "HgN/A
10:50 PM
Fri, Jul 31
73 °FClear.8 mph57%29.95 "Hg10 mi
9:50 PM75 °FClear.5 mph69%29.95 "Hg10 mi
8:50 PM77 °FPassing clouds.7 mph61%29.92 "HgN/A
7:50 PM79 °FPassing clouds.10 mph58%29.92 "HgN/A
6:50 PM81 °FPassing clouds.9 mph51%29.92 "HgN/A
5:50 PM81 °FPassing clouds.9 mph51%29.92 "HgN/A
4:50 PM81 °FScattered clouds.9 mph51%29.92 "HgN/A
3:50 PM81 °FScattered clouds.10 mph48%29.92 "HgN/A
2:50 PM79 °FPassing clouds.10 mph51%29.95 "HgN/A
1:50 PM75 °FPartly sunny.10 mph61%29.95 "HgN/A
12:50 PM72 °FPartly sunny.7 mph73%29.98 "HgN/A
11:50 AM70 °FPartly sunny.9 mph78%29.95 "HgN/A
10:50 AM72 °FPartly sunny.7 mph73%29.95 "HgN/A
Weather by CustomWeather, © 2015

See weather overviewHow to use our weather pages